Volver al catálogo

COSMOS 1034

ActivoMilitarLEO
NORAD 11042·PAYLOAD·🇷🇺 Russia

Lanzado Oct 4, 1978 desde Plesetsk Cosmodrome

Loading…

Próximos Pases (próximas 24 horas)

TLE

ActualizadoSource: Space-Track

Época: Sep 14, 2026, 18:55 UTC

1 11042U 78091A   26257.78859623 -.00000028  00000-0 -76116-4 0  9990
2 11042  74.0326  80.1011 0037945 262.5769 108.4380 12.53201891193478

Sigue COSMOS 1034 en tiempo real con AllMySat

Download on the App Store